Regional Weather Roundup
Issued by NWS Upton, NY

Current Version | Previous Version | Text Only | Print | Product List | Glossary On
Versions: 1 2 3 4 5 6 7 8 9 10 11 12 13 14 15 16 17 18 19 20 21 22 23 24 25 26 27 28 29 30 31 32 33 34 35 36 37 38 39 40 41 42 43 44 45 46 47 48 49 50
944 ASUS41 KOKX 240605 RWROKX Regional Weather Roundup National Weather Service New York NY 200 AM EDT THU MAY 24 2018 Note: "FAIR" indicates few or no clouds below 12,000 feet with no significant weather and/or obstructions to visibility. NYZ071-072-176-178-NJZ106-104-240700- New York City Metro Area CITY SKY/WX TMP DP RH WIND PRES REMARKS Central Park FAIR 68 50 52 W5 30.05S Bronx Bot Gard N/A 66 48 52 W3 30.05R Bronx Lehman C N/A 68 50 52 NW8 N/A LaGuardia Arpt FAIR 69 50 50 NW7 30.02R Queens College N/A 72 50 46 NW8 N/A Kennedy Intl FAIR 69 51 52 NW9 30.02S Breezy Point N/A 66 N/A N/A NW6 N/A Brooklyn Coll N/A 70 50 49 W8 N/A Staten Island N/A 64 52 63 W2 N/A Newark/Liberty FAIR 67 51 56 W6 30.03S Teterboro FAIR 66 52 60 NW7 30.02R $$ NYZ177-179-078>081-240700- Long Island New York CITY SKY/WX TMP DP RH WIND PRES REMARKS Jones Beach N/A 66 N/A N/A NE2 N/A Wantagh N/A 66 52 59 NW6 N/A Hempstead N/A 70 52 52 NW2 30.05S Matinecock Pt N/A 68 N/A N/A W5 N/A Farmingdale FAIR 68 50 52 N5 30.01S MacArthur/ISP FAIR 62 52 69 NW6 30.00S Stony Brook N/A 63 54 72 NW3 N/A Shirley FAIR 65 53 65 N7 30.00S Mt Sinai Harb N/A N/A N/A N/A NW5 N/A Westhampton FAIR 57 49 74 NW5 30.01S East Hampton FAIR 54 50 88 CALM 29.98S Southold N/A 64 50 59 N10 N/A Montauk N/A 64 49 57 N12 29.98S $$ NYZ052-065-067-240700- Hudson Valley CITY SKY/WX TMP DP RH WIND PRES REMARKS White Plains FAIR 60 50 69 NW6 30.02S Larchmont Harb N/A 68 N/A N/A NW3 N/A Croton On Huds N/A 61 N/A N/A CALM N/A Somers N/A 61 50 67 NW1 N/A Brewster N/A 55 48 76 NW1 N/A Newburgh CLEAR 59 54 82 VRB6 30.05S Montgomery FAIR 53 51 93 S7 30.04R Otisville N/A 61 52 72 NW5 N/A Warwick N/A 52 52 100 W1 N/A Suffern N/A 63 50 63 W2 N/A Poughkeepsie FAIR 56 51 84 CALM 30.02S Albany FAIR 59 49 69 NW6 30.03R $$ NJZ001-105-106-008-010-013-015-019>022-104-240700- New Jersey CITY SKY/WX TMP DP RH WIND PRES REMARKS Newark/Liberty FAIR 67 51 56 W6 30.03S Teterboro FAIR 66 52 60 NW7 30.02R Caldwell FAIR 59 54 83 CALM 30.05S Somerville FAIR 55 55 100 NW5 30.04S Linden FAIR 65 50 60 CALM 30.04S Perth Amboy N/A 64 N/A N/A W6 N/A Sussex FAIR 53 52 96 CALM 30.07R Andover N/A 54 53 97 CALM 30.08R Trenton FAIR 64 53 67 NW3 30.05S Millville FAIR 59 55 87 W6 30.05S Atlantic City FAIR 62 57 83 NW5 30.04F Wrightstown CLEAR 64 54 69 NW5 30.02 Toms River FAIR 58 54 86 NW5 30.05S Belmar FAIR 62 54 74 W6 30.05S $$ PAZ047>061-062-071-240700- Eastern Pennsylvania CITY SKY/WX TMP DP RH WIND PRES REMARKS Philadelphia FAIR 69 54 58 NW9 30.07R Allentown FAIR 57 52 83 NW5 30.08R Scranton FAIR 54 52 93 CALM 30.10S $$ CTZ002-004>006-009-010-012-RIZ004-006-007-MAZ004-011-015-240700- Southern New England In CT CITY SKY/WX TMP DP RH WIND PRES REMARKS Bradley Intl FAIR 62 50 64 W6 30.00S Hartford FAIR 61 52 72 CALM 29.99S Danbury FAIR 55 52 89 CALM 30.04S Wtrbury/Oxford FAIR 63 50 62 NW7 30.04S Norwalk Harbor N/A 63 N/A N/A W5 N/A Bridgeport FAIR 66 50 56 N8 30.00S Meriden FAIR 65 49 56 NW8 30.01R New Haven FAIR 61 51 70 CALM 30.00S Chester FAIR 64 50 59 NW7 30.01R Groton FAIR 63 50 62 N7 29.98R Willimantic FAIR 59 53 80 CALM 30.00R In RI CITY SKY/WX TMP DP RH WIND PRES REMARKS Providence FAIR 62 54 74 NE8 29.99R Block Island FAIR 62 52 69 N6 29.98R Westerly FAIR 63 52 67 N3 29.98R In MA CITY SKY/WX TMP DP RH WIND PRES REMARKS Boston FAIR 56 52 86 NE8 30.00S Worcester FAIR 59 51 75 N6 30.01R Westfield FAIR 57 53 86 NE3 30.00S Provincetown FAIR 53 51 93 E13 29.98R Nantucket FAIR 56 55 97 N8 29.94R $$ ANZ330-335-338-340-345-350-353-355-240700- Coastal Marine Observations STATION/POSITION TIME SKY/WX TEMP WIND PRES VSBY WAVE AIR SEA DIR/SP/G HT/PER (UTC) (F) (DEG/KT/KT) (MB) (MI) (FT/S) NY Harb Entrance 0550 64 58 290/ 12/ 14 1016.2 2/ 8 20 S Fire Island 0550 62 55 290/ 8/ 10 1015.9 2/ 6 23 SSW Montauk P 0550 61 55 290/ 8/ 10 1015.2 2/ 7 15 E Barnegat Li 0530 62 N/A 3/ 8 Hudson Canyon 0550 60 54 280/ 12/ 14 1015.0 3/ 6 Kings Point 0524 66 59 340/ 9/ 10 1017.4 Execution Rocks NOT AVBL Western LI Sound NOT AVBL Central LI Sound 0530 63 330/ 10/ 12 N/A 0 Robbins Reef 0524 71 290/ 10/ 11 1017.2 $$ >>>>>>>>>>>>>>>>>>>>>>>>>>>> KEY <<<<<<<<<<<<<<<<<<<<<<<<<<< > < > SKY/WX - Sky Condition/Present Weather < > TMP - Temperature in Fahrenheit < > DP - Dew Point in Fahrenheit < > RH - Relative Humidity in Percent < > WIND - Direction (from) and Speed in MPH < > PRES - Mean Sea Level Pressure (inches of Hg) < > WCI - Wind Chill Index < > VSB - Visibility in Miles < > HX - Heat Index < > TC - Temperature in Celsius < > VRB - Varibale Wind Direction < > < >>>>>>>>>>>>>>>>>>>>>>>>>>>> KEY <<<<<<<<<<<<<<<<<<<<<<<<<<<

USA.gov is the U.S. government's official web portal to all federal, state and local government web resources and services.